Terminal Aerodrome Forecast
Issued by NWS

Home | Current Version | Previous Version | Graphics & Text | Print | Product List | Glossary On
Versions: 1 2 3 4 5 6 7 8 9 10 11 12 13 14 15 16 17 18 19
000
FTUS43 KICT 300520
TAFCNU
TAF
KCNU 300520Z 3006/0106 09010KT P6SM VCSH SCT009 OVC015
     FM301000 20007KT 5SM BR OVC007
     FM301600 24013KT P6SM SCT025
     FM302100 23014KT P6SM SCT110
     FM010300 26009KT P6SM SCT250=

USA.gov is the U.S. government's official web portal to all federal, state and local government web resources and services.